Location: Unspecified
(0.0000°N, 0.0000°E)
Time: 05:04:13
(UTC+00:00)

Vanguard 2 Rocket - Pass Details

Date: 11 December 2017
Orbit: 556 x 3326 km, 32.9° (Epoch: 19 January)

Event Time Altitude Azimuth Distance (km) Brightness Sun altitude
Rises 22:36:27 0° 312° (NW) 6,586 11.3 -60.3°
Enters shadow 22:39:54 - 320° (NW) 6,223 11.0 -60.8°
Reaches altitude 10° 22:43:04 10° 329° (NNW) 5,945 - -61.3°
Maximum altitude 22:55:21 19° 9° (N) 5,489 - -62.9°
Drops below altitude 10° 23:07:51 10° 48° (NE) 6,092 - -64.4°
Sets 23:14:43 0° 64° (ENE) 6,798 - -65.1°
